Regional Weather Roundup
Issued by NWS

Home | Current Version | Previous Version | Graphics & Text | Print | Product List | Glossary On
Versions: 1 2 3 4 5 6 7 8 9 10 11 12 13 14 15 16 17 18 19 20 21 22 23 24 25 26 27 28
000
ASUS45 KCYS 231610
RWRWY

WYOMING REGIONAL WEATHER ROUNDUP
NATIONAL WEATHER SERVICE CHEYENNE WY
1000 AM MDT WED APR 23 2014

NOTE:  "FAIR" INDICATES FEW OR NO CLOUDS BELOW 12,000 FEET
WITH NO SIGNIFICANT WEATHER AND/OR OBSTRUCTIONS TO VISIBILITY.

WYZ001-231700-
YELLOWSTONE NATIONAL PARK

CITY           SKY/WX    TMP DP  RH WIND       PRES   REMARKS
LK YELLOWSTONE   N/A     29  19  66 W8G18     29.80R WCI  21
W YELLOWSTONE  NOT AVBL

$$
WYZ002>013-054>058-071-098>099-231700-
NORTHERN WYOMING

CITY           SKY/WX    TMP DP  RH WIND       PRES   REMARKS
JACKSON        PTSUNNY   34  21  60 S17G26    29.86R WCI  23
CODY           CLOUDY    45  23  42 W14       29.68R
GREYBULL       CLOUDY    50  32  50 NW26G32   29.66R
WORLAND        PTSUNNY   53  27  36 N15       29.65R
SHERIDAN         N/A     39  27  60 SW18G31     N/A  WCI  30
BUFFALO        CLOUDY    38  32  79 N25G39    29.65R WCI  27
GILLETTE       CLOUDY    49  37  63 NW22G28   29.59R
HULETT         CLOUDY    50  41  71 N8        29.58
NEWCASTLE      FAIR      52  27  37 W22       29.62

$$
WYZ014>020-022>026-101>103-231700-
CENTRAL WYOMING

CITY           SKY/WX    TMP DP  RH WIND       PRES   REMARKS
BIG PINEY      SUNNY     37  10  32 W18G25    29.85S WCI  27
PINEDALE       MOSUNNY   32  12  43 W18       29.87R WCI  20
DUBOIS         CLOUDY    34  14  44 W29       29.74S WCI  20
LANDER         SUNNY     48   8  19 W7        29.71R
RIVERTON       SUNNY     49  11  21 NW14G24   29.72R
CASPER         SUNNY     51  23  33 W24G39    29.68S
DOUGLAS        MOSUNNY   54  26  34 W24G32    29.68R

$$
WYZ021-027>030-104>119-231700-
SOUTHERN WYOMING

CITY           SKY/WX    TMP DP  RH WIND       PRES   REMARKS
EVANSTON       PTSUNNY   31  19  61 W18G24    29.95R WCI  19
KEMMERER       MOSUNNY   32  18  55 W17G23    29.91  WCI  21
FORT BRIDGER   FAIR      32  20  61 W17G30    29.97R WCI  21
ROCK SPRINGS   PTSUNNY   37  20  50 SW25G33   29.90R WCI  25
DIXON          CLOUDY    40  29  65 W13       29.91S WCI  32
RAWLINS        MOSUNNY   39  24  55 W24G30    29.82R WCI  28
SARATOGA       CLOUDY    37  27  65 W17G25    29.86R WCI  28
LARAMIE        MOSUNNY   47  24  40 W23G29    29.72F
CHEYENNE       SUNNY     55  30  38 W18G25    29.70R
TORRINGTON     PTSUNNY   59  30  33 NW35G45   29.58F
PINE BLUFFS    FAIR      61  32  33 W30       29.62S

$$



USA.gov is the U.S. government's official web portal to all federal, state and local government web resources and services.